This is the latest recevied weather packets stored in our database for station/object ALANSN-2. If no packets are shown the sender has not sent any weather packets the latest 10 day(s).
| Time | Temp. | Humidity | Pressure | Rain* | Wind** | Luminosity | Snow |
|---|---|---|---|---|---|---|---|
| 1787584617 | 16.67° C | 88% | 1025.7 hPa | 0 mm | - | 78 W/m² | - |
| 1787584320 | 16.67° C | 87% | 1025.9 hPa | 0 mm | - | 81 W/m² | - |
| 1787584019 | 16.67° C | 88% | 1025.5 hPa | 0 mm | - | 81 W/m² | - |
| 1787583720 | 16.67° C | 87% | 1025.5 hPa | 0 mm | - | 110 W/m² | - |
| 1787583420 | 16.67° C | 87% | 1025.6 hPa | 0 mm | - | 119 W/m² | - |
| 1787583120 | 16.67° C | 88% | 1025.6 hPa | 0 mm | - | 110 W/m² | - |
| 1787582820 | 16.67° C | 88% | 1025.5 hPa | 0 mm | - | 97 W/m² | - |
| 1787582519 | 16.67° C | 88% | 1025.4 hPa | 0 mm | - | 96 W/m² | - |
| 1787582220 | 16.67° C | 87% | 1025.4 hPa | 0 mm | - | 92 W/m² | - |
| 1787581919 | 16.67° C | 86% | 1025.2 hPa | 0 mm | - | 110 W/m² | - |
| 1787581619 | 16.67° C | 86% | 1025.2 hPa | 0 mm | - | 124 W/m² | - |
| 1787581319 | 16.67° C | 86% | 1025.2 hPa | 0 mm | - | 113 W/m² | - |
| 1787581018 | 16.67° C | 85% | 1025.1 hPa | 0 mm | - | 126 W/m² | - |
| 1787580719 | 16.67° C | 85% | 1025.2 hPa | 0 mm | - | 129 W/m² | - |
| 1787580420 | 16.67° C | 86% | 1025.1 hPa | 0 mm | - | 140 W/m² | - |
| 1787580119 | 16.67° C | 86% | 1024.9 hPa | 0 mm | - | 134 W/m² | - |
| 1787579821 | 16.67° C | 86% | 1024.9 hPa | 0 mm | - | 134 W/m² | - |
| 1787579520 | 16.11° C | 88% | 1024.8 hPa | 0 mm | - | 135 W/m² | - |
| 1787579220 | 16.11° C | 87% | 1024.9 hPa | 0 mm | - | 124 W/m² | - |
| 1787578920 | 16.11° C | 87% | 1024.9 hPa | 0 mm | - | 124 W/m² | - |
| 1787578620 | 16.11° C | 87% | 1025.1 hPa | 0 mm | - | 114 W/m² | - |
| 1787578320 | 16.11° C | 88% | 1024.9 hPa | 0 mm | - | 109 W/m² | - |
| 1787578020 | 16.11° C | 88% | 1024.9 hPa | 0 mm | - | 109 W/m² | - |
| 1787577720 | 16.11° C | 89% | 1024.7 hPa | 0 mm | - | 91 W/m² | - |
| 1787577417 | 15.56° C | 89% | 1024.7 hPa | 0 mm | - | 76 W/m² | - |
* Rain latest hour (hover to see other rain measurements)
** Current wind speed in m/s (hover to see current wind gust speed)